This is the latest recevied weather packets stored in our database for station/object N2PPN. If no packets are shown the sender has not sent any weather packets the latest 1 day(s).
| Time | Temp. | Humidity | Pressure | Rain* | Wind** | Luminosity | Snow |
|---|---|---|---|---|---|---|---|
| 1778017897 | 17.78° C | 71% | 1012.1 hPa | 0 mm | 5.81 m/s, 272° | 212 W/m² | - |
| 1778017594 | 17.78° C | 71% | 1012.2 hPa | 0 mm | 5.36 m/s, 232° | 233 W/m² | - |
| 1778017291 | 17.78° C | 71% | 1012.3 hPa | 0 mm | 7.15 m/s, 193° | 238 W/m² | - |
| 1778016989 | 18.33° C | 70% | 1012.1 hPa | 0 mm | 4.92 m/s, 247° | 252 W/m² | - |
| 1778016685 | 18.33° C | 70% | 1012.2 hPa | 0 mm | 2.68 m/s, 249° | 268 W/m² | - |
| 1778016381 | 18.33° C | 70% | 1011.7 hPa | 0 mm | 3.13 m/s, 185° | 287 W/m² | - |
| 1778016079 | 18.33° C | 70% | 1011.8 hPa | 0 mm | 5.36 m/s, 206° | 299 W/m² | - |
| 1778015776 | 18.89° C | 70% | 1011.8 hPa | 0 mm | 4.92 m/s, 225° | 314 W/m² | - |
| 1778015473 | 18.33° C | 71% | 1011.8 hPa | 0 mm | 0.89 m/s, 191° | 337 W/m² | - |
| 1778015169 | 18.33° C | 71% | 1011.8 hPa | 0 mm | 5.81 m/s, 260° | 341 W/m² | - |
| 1778014866 | 18.33° C | 71% | 1011.8 hPa | 0 mm | 2.24 m/s, 196° | 372 W/m² | - |
| 1778014564 | 18.33° C | 71% | 1011.8 hPa | 0 mm | 4.92 m/s, 220° | 298 W/m² | - |
| 1778014262 | 17.78° C | 72% | 1011.9 hPa | 0 mm | 4.92 m/s, 240° | 307 W/m² | - |
| 1778013959 | 17.78° C | 72% | 1011.9 hPa | 0 mm | 3.13 m/s, 200° | 358 W/m² | - |
| 1778013656 | 18.33° C | 72% | 1011.9 hPa | 0 mm | 6.26 m/s, 231° | 374 W/m² | - |
| 1778013352 | 18.89° C | 71% | 1012.1 hPa | 0 mm | 5.81 m/s, 235° | 398 W/m² | - |
| 1778013050 | 18.33° C | 71% | 1012 hPa | 0 mm | 4.47 m/s, 282° | 397 W/m² | - |
| 1778012745 | 18.89° C | 71% | 1011.8 hPa | 0 mm | 3.13 m/s, 171° | 428 W/m² | - |
| 1778012441 | 18.89° C | 71% | 1012 hPa | 0 mm | 5.36 m/s, 215° | 448 W/m² | - |
| 1778012138 | 18.33° C | 71% | 1012 hPa | 0 mm | 5.36 m/s, 187° | 467 W/m² | - |
| 1778011836 | 17.78° C | 72% | 1011.8 hPa | 0 mm | 5.81 m/s, 172° | 471 W/m² | - |
| 1778011534 | 18.33° C | 71% | 1012.2 hPa | 0 mm | 6.26 m/s, 226° | 475 W/m² | - |
| 1778011231 | 18.89° C | 71% | 1012.2 hPa | 0 mm | 4.47 m/s, 233° | 494 W/m² | - |
| 1778010927 | 18.89° C | 70% | 1012.4 hPa | 0 mm | 4.47 m/s, 213° | 506 W/m² | - |
| 1778010624 | 18.89° C | 70% | 1012.3 hPa | 0 mm | 2.68 m/s, 214° | 518 W/m² | - |
* Rain latest hour (hover to see other rain measurements)
** Current wind speed in m/s (hover to see current wind gust speed)